Date String (YYYY-MM-DD hh:mm:ss) UTC,Instrument flags,absolute air pressure of the measurement (hPa),sample flow rate (lpm),inlet stack bypass flow (lpm),air temperature of the measurement (°C),ambient temperature measured by the external sensor (°C),aerosol sample conditioner tube jacket temperature (°C),OPC LED temperature (°C),internal box temperature (°C),relative humidity of the measurement (%),span deviation,mass concentration of particles derived from Lorenz-Mie calculation of OPC scattering (μg/m³),mass concentration of particles derived from Lorenz-Mie calculation of OPC scattering (μg/m³),mass concentration of particles derived from Lorenz-Mie calculation of OPC scattering (μg/m³)
DateTimeUTC,F1_M11,P_M11,Q1_M11,Q2_M11,T1_M11,T2_M11,T3_M11,T4_M11,T5_M11,U1_M11,ZSPAN_M11,X0_M11,X2_M11,X1_M11
2023-08-19 05:00:00,SystemResetWarning,0830.8,5.01,000.00,027.8,023.8,000.0,036.1,029.0,26.9,0000.0,0003.49,0001.65,0001.31
2023-08-19 05:01:00,SystemResetWarning,0830.8,5.00,000.00,027.7,024.2,000.0,036.1,029.0,27.0,0000.0,0002.27,0001.64,0001.31
2023-08-19 05:02:00,SystemResetWarning,0830.9,5.00,000.00,027.7,024.6,000.0,036.1,029.2,27.0,0000.0,0002.28,0001.63,0001.31
2023-08-19 05:03:00,SystemResetWarning,0830.9,5.00,000.00,027.7,025.1,000.0,036.1,029.3,27.1,0000.0,0002.36,0001.66,0001.31
2023-08-19 05:04:00,SystemResetWarning,0830.8,4.99,000.00,027.7,025.5,000.0,036.2,029.4,27.1,0000.0,0002.40,0001.69,0001.31
2023-08-19 05:05:00,SystemResetWarning,0830.8,4.99,000.00,027.7,025.8,000.0,036.2,029.5,27.5,0000.0,0002.32,0001.67,0001.31
2023-08-19 05:06:00,SystemResetWarning,0830.8,5.00,000.00,027.8,026.1,000.0,036.2,029.6,27.7,0000.0,0002.40,0001.69,0001.31
2023-08-19 05:07:00,SystemResetWarning,0830.8,5.00,000.00,027.8,026.3,000.0,036.2,029.6,27.7,0000.0,0002.70,0001.67,0001.31
2023-08-19 05:08:00,SystemResetWarning,0830.8,5.00,000.00,027.9,026.5,000.0,036.3,029.7,27.8,0000.0,0002.94,0001.67,0001.31
2023-08-19 05:09:00,SystemResetWarning,0830.8,5.00,000.00,027.9,026.7,000.0,036.3,029.8,27.8,0000.0,0002.85,0001.63,0001.30
2023-08-19 05:10:00,SystemResetWarning,0830.9,4.99,000.00,028.0,026.9,000.0,036.3,029.8,28.3,0000.0,0003.79,0001.60,0001.29
2023-08-19 05:11:00,SystemResetWarning,0830.9,4.99,000.00,028.0,026.8,000.0,036.3,029.9,28.6,0000.0,0004.51,0001.61,0001.28
2023-08-19 05:12:00,SystemResetWarning,0830.9,5.00,000.00,028.0,025.1,000.0,036.2,029.6,29.1,0000.0,0005.73,0001.62,0001.28
2023-08-19 05:13:00,SystemResetWarning,0830.9,5.00,000.00,027.9,023.8,000.0,036.1,029.3,29.3,0000.0,0005.75,0001.63,0001.29
2023-08-19 05:14:00,SystemResetWarning,0830.9,5.01,000.00,027.8,023.6,000.0,036.1,029.1,29.2,0000.0,0005.71,0001.62,0001.28
2023-08-19 05:15:00,SystemResetWarning,0830.9,5.01,000.00,027.7,024.0,000.0,036.1,029.1,28.9,0000.0,0005.68,0001.59,0001.28
2023-08-19 05:16:00,SystemResetWarning,0830.9,4.99,000.00,027.7,024.4,000.0,036.1,029.2,28.7,0000.0,0005.77,0001.62,0001.28
2023-08-19 05:17:00,SystemResetWarning,0830.9,5.00,000.00,027.7,024.9,000.0,036.2,029.3,29.2,0000.0,0005.72,0001.61,0001.28
2023-08-19 05:18:00,SystemResetWarning,0830.9,5.00,000.00,027.7,025.3,000.0,036.2,029.4,29.1,0000.0,0005.47,0001.61,0001.29
2023-08-19 05:19:00,SystemResetWarning,0830.9,5.00,000.00,027.8,025.7,000.0,036.2,029.5,28.3,0000.0,0005.12,0001.59,0001.29
2023-08-19 05:20:00,SystemResetWarning,0830.9,5.01,000.00,027.8,026.0,000.0,036.2,029.6,28.2,0000.0,0005.21,0001.64,0001.31
2023-08-19 05:21:00,SystemResetWarning,0830.9,5.00,000.00,027.8,026.2,000.0,036.2,029.6,28.5,0000.0,0004.39,0001.64,0001.30
2023-08-19 05:22:00,SystemResetWarning,0830.9,4.99,000.00,027.9,026.5,000.0,036.3,029.7,28.7,0000.0,0003.84,0001.64,0001.30
2023-08-19 05:23:00,SystemResetWarning,0830.9,5.00,000.00,027.9,026.7,000.0,036.3,029.8,30.4,0000.0,0002.58,0001.71,0001.32
2023-08-19 05:24:00,SystemResetWarning,0830.9,5.01,000.00,028.0,026.8,000.0,036.3,029.8,30.0,0000.0,0003.24,0001.76,0001.33
2023-08-19 05:25:00,SystemResetWarning,0831.0,5.01,000.00,028.0,027.0,000.0,036.4,029.9,27.9,0000.0,0003.44,0001.76,0001.33
2023-08-19 05:26:00,SystemResetWarning,0831.1,5.00,000.00,028.1,026.7,000.0,036.4,029.9,27.2,0000.0,0003.47,0001.77,0001.32
2023-08-19 05:27:00,SystemResetWarning,0831.1,4.98,000.00,028.1,025.2,000.0,036.3,029.7,27.1,0000.0,0003.40,0001.75,0001.33
2023-08-19 05:28:00,SystemResetWarning,0831.0,5.02,000.00,028.0,024.6,000.0,036.2,029.5,27.0,0000.0,0003.46,0001.77,0001.34
2023-08-19 05:29:00,SystemResetWarning,0831.0,5.00,000.00,027.9,024.8,000.0,036.2,029.5,27.0,0000.0,0003.62,0001.80,0001.34
2023-08-19 05:30:00,SystemResetWarning,0830.9,5.00,000.00,027.9,025.1,000.0,036.3,029.4,26.9,0000.0,0003.67,0001.83,0001.34
2023-08-19 05:31:00,SystemResetWarning,0830.9,5.00,000.00,027.9,025.4,000.0,036.3,029.5,27.0,0000.0,0003.81,0001.85,0001.34
2023-08-19 05:32:00,SystemResetWarning,0831.0,5.00,000.00,027.9,025.8,000.0,036.3,029.6,27.0,0000.0,0004.09,0001.86,0001.34
2023-08-19 05:33:00,SystemResetWarning,0831.0,5.00,000.00,028.0,026.1,000.0,036.4,029.7,26.9,0000.0,0004.10,0001.84,0001.33
2023-08-19 05:34:00,SystemResetWarning,0831.0,5.00,000.00,028.0,026.4,000.0,036.4,029.8,26.8,0000.0,0003.97,0001.81,0001.32
2023-08-19 05:35:00,SystemResetWarning,0831.1,5.00,000.00,028.1,026.6,000.0,036.4,029.9,26.8,0000.0,0003.65,0001.76,0001.30
2023-08-19 05:36:00,SystemResetWarning,0831.2,5.01,000.00,028.1,026.8,000.0,036.4,029.9,27.1,0000.0,0003.10,0001.75,0001.29
2023-08-19 05:37:00,SystemResetWarning,0831.2,4.99,000.00,028.2,027.0,000.0,036.5,030.0,27.5,0000.0,0003.13,0001.77,0001.30
2023-08-19 05:38:00,SystemResetWarning,0831.2,4.98,000.00,028.2,026.4,000.0,036.4,029.9,27.7,0000.0,0003.05,0001.73,0001.30
2023-08-19 05:39:00,SystemResetWarning,0831.1,5.00,000.00,028.1,024.6,000.0,036.3,029.6,27.5,0000.0,0003.00,0001.71,0001.29
2023-08-19 05:40:00,SystemResetWarning,0831.1,5.00,000.00,028.0,023.7,000.0,036.2,029.3,27.6,0000.0,0002.81,0001.66,0001.30
2023-08-19 05:41:00,SystemResetWarning,0831.1,5.01,000.00,027.9,023.9,000.0,036.2,029.2,28.1,0000.0,0002.77,0001.67,0001.31
2023-08-19 05:42:00,SystemResetWarning,0831.1,5.01,000.00,027.8,024.2,000.0,036.3,029.2,27.4,0000.0,0002.69,0001.64,0001.31
2023-08-19 05:43:00,SystemResetWarning,0831.1,5.00,000.00,027.8,024.7,000.0,036.3,029.3,27.4,0000.0,0002.53,0001.66,0001.33
2023-08-19 05:44:00,SystemResetWarning,0831.1,5.00,000.00,027.8,025.1,000.0,036.3,029.4,27.4,0000.0,0002.51,0001.68,0001.34
2023-08-19 05:45:00,SystemResetWarning,0831.2,5.00,000.00,027.8,025.5,000.0,036.3,029.5,27.4,0000.0,0002.43,0001.66,0001.34
2023-08-19 05:46:00,SystemResetWarning,0831.2,4.99,000.00,027.9,025.9,000.0,036.3,029.6,27.3,0000.0,0002.42,0001.66,0001.35
2023-08-19 05:47:00,SystemResetWarning,0831.2,5.00,000.00,027.9,026.2,000.0,036.3,029.7,27.3,0000.0,0003.16,0001.67,0001.37
2023-08-19 05:48:00,SystemResetWarning,0831.2,5.01,000.00,028.0,026.4,000.0,036.4,029.8,27.6,0000.0,0005.53,0001.66,0001.37
2023-08-19 05:49:00,SystemResetWarning,0831.2,5.00,000.00,028.0,026.6,000.0,036.4,029.8,27.4,0000.0,0005.75,0001.69,0001.39
2023-08-19 05:50:00,SystemResetWarning,0831.2,5.00,000.00,028.1,026.8,000.0,036.4,029.9,27.8,0000.0,0005.86,0001.74,0001.41
2023-08-19 05:51:00,SystemResetWarning,0831.2,4.99,000.00,028.1,026.7,000.0,036.4,029.9,27.4,0000.0,0005.95,0001.78,0001.41
2023-08-19 05:52:00,SystemResetWarning,0831.2,5.00,000.00,028.1,025.1,000.0,036.3,029.6,27.7,0000.0,0006.08,0001.82,0001.41
2023-08-19 05:53:00,SystemResetWarning,0831.1,5.00,000.00,028.0,023.8,000.0,036.2,029.3,27.6,0000.0,0006.21,0001.87,0001.43
2023-08-19 05:54:00,SystemResetWarning,0831.1,5.00,000.00,027.9,023.6,000.0,036.2,029.2,27.5,0000.0,0006.23,0001.90,0001.43
2023-08-19 05:55:00,SystemResetWarning,0831.1,5.01,000.00,027.8,024.0,000.0,036.2,029.1,27.7,0000.0,0006.30,0001.90,0001.43
2023-08-19 05:56:00,SystemResetWarning,0831.1,5.00,000.00,027.7,024.4,000.0,036.2,029.2,27.7,0000.0,0006.35,0001.92,0001.43
2023-08-19 05:57:00,SystemResetWarning,0831.2,5.00,000.00,027.7,024.9,000.0,036.2,029.3,27.8,0000.0,0006.39,0001.93,0001.43
2023-08-19 05:58:00,SystemResetWarning,0831.1,5.00,000.00,027.8,025.3,000.0,036.2,029.4,27.8,0000.0,0006.23,0001.92,0001.42
2023-08-19 05:59:00,SystemResetWarning,0831.2,5.00,000.00,027.8,025.7,000.0,036.3,029.5,27.8,0000.0,0003.41,0001.94,0001.41
